[[{"header":{"parameterUnit":"m.s-1","parameterCategory":1,"la1":30.2992,"la2":30.254,"lo1":-89.0895,"lo2":-89.0443,"dy":0.0025,"dx":0.0025,"nx":19,"ny":19,"refTime":"2026-04-08T09:00:00:Z","depth":0,"parameterNumber":2,"parameterNumberName":"U-component_of_WINDS"},"data":[0,0,0,-4.2256,-4.2259,-4.2411,-4.2412,-4.2638,-4.264,0,0,0,0,0,0,0,0,0,0,0,-4.2231,-4.2234,-4.2255,-4.226,-4.2411,-4.2412,-4.2637,-4.264,0,0,0,0,0,0,0,0,0,0,0,-4.223,-4.2233,-4.2236,-4.2261,-4.2411,-4.2412,-4.2637,-4.2511,0,0,0,0,0,0,0,0,0,0,-4.2358,-4.2356,-4.2232,-4.2236,-4.2262,-4.2411,-4.2412,-4.2504,-4.2519,-4.2583,0,-4.2647,0,-4.2647,-4.2657,-4.2658,0,0,0,-4.2245,-4.2344,-4.2366,-4.2236,-4.2263,-4.2411,-4.2339,-4.2512,-4.2528,-4.2603,-4.265,-4.2657,-4.2651,-4.2659,-4.266,-4.3085,-4.3087,0,0,-4.2236,-4.227,-4.2355,-4.2378,-4.2357,-4.2334,-4.2343,-4.2521,-4.2575,-4.265,-4.2662,-4.2655,-4.2661,-4.2663,-4.3082,-4.3086,0,0,0,-4.2222,-4.2265,-4.2282,-4.237,-4.2394,-4.2339,-4.235,-4.2567,-4.2569,-4.2664,-4.2657,-4.2662,-4.2665,-4.3079,-4.3083,-4.3251,0,0,0,-4.2217,-4.2256,-4.2279,-4.2301,-4.2392,-4.2483,-4.2392,-4.2557,-4.2576,-4.2656,-4.2662,-4.2668,-4.3076,-4.3081,-4.324,-4.3325,0,0,0,-4.2215,-4.2256,-4.2285,-4.2302,-4.2369,-4.2479,-4.2491,-4.256,-4.2573,-4.2659,-4.2669,-4.3074,-4.3081,-4.323,-4.3309,-4.3447,0,0,0,-4.2222,-4.2432,-4.2288,-4.2519,-4.2368,-4.2581,-4.249,-4.2647,-4.274,-4.2664,-4.3077,-4.3083,-4.3227,-4.3299,-4.3437,-4.3571,-4.363,0,0,-4.2505,-4.2467,-4.26,-4.2476,-4.2724,-4.2555,-4.2827,-4.288,-4.2857,-4.301,-4.302,-4.3243,-4.3307,-4.3445,-4.3944,-4.3991,0,0,0,-4.2701,-4.2798,-4.2856,-4.2946,-4.2992,-4.3037,-4.3045,-4.3064,-4.3193,-4.2943,-4.3329,-4.3366,-4.3445,-4.3508,-4.3548,-4.3614,-4.3113,-4.3112,-4.3112,-4.3153,-4.3111,-4.3329,-4.3306,-4.3394,-4.3399,-4.3467,-4.3493,-4.3426,-4.3518,-4.3564,-4.3872,-4.3947,-4.3976,-4.4046,-4.363,-4.3631,-4.3631,-4.3632,-4.3565,-4.3696,-4.36,-4.3777,-4.3731,-4.3879,-4.3891,-4.3838,-4.3968,-4.3834,-4.3902,-4.376,-4.4029,-4.4087,-4.3644,-4.3642,-4.364,-4.3639,-4.3638,-4.3858,-4.3913,-4.3932,-4.4058,-4.4158,-4.4126,-4.4256,-4.4209,-4.4166,-4.4233,-4.4276,-4.4274,-4.4266,-4.4256,-4.4257,-4.4259,-4.4259,-4.426,-4.4261,-4.4155,-4.4171,-4.4287,-4.4351,-4.4402,-4.4463,-4.4468,-4.4517,-4.4559,-4.4514,-4.4514,-4.4439,-4.4062,-4.397,-4.4277,-4.4274,-4.4272,-4.4271,-4.427,-4.4593,-4.4486,-4.4665,-4.4716,-4.4786,-4.4889,-4.4826,-4.4929,-4.4962,-4.5028,-4.4936,-4.4665,-4.4622,-4.459,-4.4514,-4.4943,-4.4943,-4.4944,-4.4944,-4.4841,-4.4814,-4.4985,-4.507,-4.5147,-4.5108,-4.531,-4.5316,-4.5304,-4.5322,-4.5252,-4.5145,-4.5114,-4.509,-4.5047,-4.4975,-4.5513,-4.5513,-4.5514,-4.5108,-4.5086,-4.5269,-4.5255,-4.5306,-4.5351,-4.554,-4.564,-4.5604,-4.5536,-4.5335,-4.5311,-4.5137,-4.5083,-4.5014,-4.4948,-4.4814,0,0]},{"header":{"parameterUnit":"m.s-1","parameterCategory":1,"la1":30.2992,"la2":30.254,"lo1":-89.0895,"lo2":-89.0443,"dy":0.0025,"dx":0.0025,"nx":19,"ny":19,"refTime":"2026-04-08T09:00:00:Z","depth":0,"parameterNumber":3,"parameterNumberName":"V-component_of_WINDS"},"data":[0,0,0,-2.37,-2.3699,-2.3647,-2.3647,-2.3586,-2.3585,0,0,0,0,0,0,0,0,0,0,0,-2.3722,-2.3722,-2.37,-2.3699,-2.3647,-2.3647,-2.3586,-2.3585,0,0,0,0,0,0,0,0,0,0,0,-2.3722,-2.3722,-2.3721,-2.3699,-2.3647,-2.3647,-2.3586,-2.3623,0,0,0,0,0,0,0,0,0,0,-2.3672,-2.3699,-2.3722,-2.3721,-2.3699,-2.3647,-2.3647,-2.3624,-2.362,-2.3612,0,-2.3609,0,-2.3596,-2.3582,-2.3581,0,0,0,-2.3694,-2.3702,-2.3683,-2.3721,-2.3698,-2.3647,-2.3669,-2.3622,-2.3618,-2.3607,-2.3608,-2.3606,-2.3595,-2.3581,-2.3581,-2.3554,-2.3554,0,0,-2.3697,-2.3715,-2.3686,-2.368,-2.3691,-2.3671,-2.3668,-2.3619,-2.3621,-2.3608,-2.3604,-2.3594,-2.3581,-2.358,-2.3554,-2.3554,0,0,0,-2.3709,-2.3718,-2.3699,-2.3683,-2.3673,-2.367,-2.3666,-2.3623,-2.3615,-2.3603,-2.3593,-2.3581,-2.358,-2.3554,-2.3554,-2.3577,0,0,0,-2.371,-2.3724,-2.3701,-2.3711,-2.3674,-2.3648,-2.3671,-2.3619,-2.3613,-2.3594,-2.3581,-2.3579,-2.3554,-2.3554,-2.3576,-2.3584,0,0,0,-2.3723,-2.3726,-2.372,-2.3712,-2.3691,-2.3648,-2.3638,-2.3617,-2.3607,-2.3581,-2.3579,-2.3554,-2.3554,-2.3575,-2.3583,-2.3581,0,0,0,-2.3742,-2.3742,-2.3721,-2.3717,-2.3691,-2.3663,-2.3638,-2.3616,-2.3597,-2.358,-2.3554,-2.3554,-2.3575,-2.3582,-2.358,-2.3583,-2.3586,0,0,-2.3752,-2.3744,-2.374,-2.372,-2.37,-2.367,-2.3652,-2.3617,-2.3598,-2.3569,-2.3568,-2.3576,-2.3583,-2.3581,-2.3597,-2.3599,0,0,0,-2.3749,-2.3746,-2.3737,-2.372,-2.3693,-2.367,-2.3636,-2.3622,-2.3597,-2.3587,-2.3575,-2.3578,-2.3576,-2.3576,-2.3578,-2.3574,-2.3555,-2.3555,-2.3555,-2.379,-2.3765,-2.3755,-2.3723,-2.3706,-2.3669,-2.3652,-2.3627,-2.3607,-2.3604,-2.3595,-2.3608,-2.3609,-2.3611,-2.3607,-2.3595,-2.3595,-2.3595,-2.3595,-2.3802,-2.3793,-2.3764,-2.3745,-2.3717,-2.3699,-2.3662,-2.3648,-2.3625,-2.3613,-2.361,-2.3599,-2.3614,-2.3609,-2.3596,-2.3596,-2.3596,-2.3596,-2.3596,-2.3826,-2.3817,-2.38,-2.377,-2.3749,-2.3715,-2.3695,-2.367,-2.3646,-2.3643,-2.3629,-2.3629,-2.3624,-2.3638,-2.3638,-2.3638,-2.3638,-2.3638,-2.3638,-2.3857,-2.3837,-2.3824,-2.3793,-2.3777,-2.3752,-2.3712,-2.3695,-2.3668,-2.3652,-2.3651,-2.363,-2.3621,-2.3619,-2.3639,-2.3639,-2.3639,-2.3639,-2.3639,-2.3877,-2.3868,-2.3848,-2.3832,-2.3791,-2.377,-2.3738,-2.3704,-2.3685,-2.3675,-2.3653,-2.3651,-2.3641,-2.3639,-2.3637,-2.366,-2.366,-2.366,-2.366,-2.3897,-2.3889,-2.3861,-2.3836,-2.3808,-2.3776,-2.375,-2.3717,-2.3681,-2.3667,-2.366,-2.3655,-2.3654,-2.3644,-2.3642,-2.364,-2.3663,-2.3663,-2.3663,-2.3907,-2.3895,-2.3879,-2.3846,-2.3811,-2.3781,-2.3755,-2.3724,-2.3682,-2.3663,-2.3655,-2.3655,-2.3647,-2.3646,-2.3628,-2.3625,-2.3621,0,0]}]]